Weather in Paraul

Russia / Republic of Dagestan     42°44′25″N   47°21′10″E
temp.,
°C
wind,
m/s
gust,
m/s
humid.,
%
clouds,
%
prec.,
mm/h
press.,
hPa
HPBL,
m
23 october, sat
sat2300:00+12wsw22500 0.0 102011
03:00+11wsw22500 0.0 102011
06:00+11wsw22520 0.0 102011
09:00+15nw22420 0.0 1020258
12:00+17n32390 0.0 1019600
15:00+16n22400 0.0 1019618
18:00+12wsw22530 0.0 101912
21:00+11sw21560 0.0 101911
24 october, sun
sun2400:00+10sw11572 0.0 101810
03:00+10wsw22600 0.0 101810
06:00+10sw22630 0.0 101910
09:00+15nw22430 0.0 1019311
12:00+16nne32385 0.0 1017743
15:00+15nne22435 0.0 1016795
18:00+11sse115982 0.0 101610
21:00+10sw116097 0.0 101510
25 october, mon
mon2500:00+10wsw116321 0.0 101410
03:00+9wnw226895 0.0 101521
06:00+9w1168100 0.0 101712
09:00+5nnw5687100 0.0 1021533
12:00+5nnw4691100 0.1 1022546
15:00+5nnw3586100 0.3 1023607
18:00+4nw258396 0.4 1025594
21:00+3nnw468750 0.5 1027477
26 october, tue
tue2600:00+2nnw478274 0.1 1028550
03:00+1nnw249147 0.1 1029293
06:000wnw22836 0.0 103090
09:00+3nnw33625 0.0 1031569
12:00+5nnw445395 0.0 10301019
15:00+5n5454100 0.0 1030878
18:00+2n126186 0.0 1033174
21:00+1n01673 0.0 103310
27 october, wed
wed2700:000s11711 0.0 103310
03:000sse11740 0.0 103210
06:000se11740 0.0 103210
09:00+5ese33590 0.0 1031358
12:00+7e45551 0.0 1028603
15:00+8e55590 0.0 1026544
18:00+4se34820 0.0 1027100
21:00+4se33770 0.0 102559